Location: Dampvalley
(47.9094°N, 6.1967°E)
Time: 04:09:16
(UTC+00:00)

SO-50 - Pass Details

Date: 01 December 2021
Orbit: 595 x 689 km, 64.6° (Epoch: 19 January)

Event Time Altitude Azimuth Distance (km) Brightness Sun altitude
Rises 16:40:33 0° 323° (NW) 3,011 ? -9.1°
Reaches altitude 10° 16:42:53 10° 327° (NNW) 2,108 ? -9.5°
Maximum altitude 16:47:39 60° 48° (NE) 781 ? -10.2°
Drops below altitude 10° 16:52:28 10° 128° (SE) 2,132 ? -11.0°
Sets 16:54:50 0° 132° (SE) 3,049 ? -11.4°
